Year,Month,Day,Hour,Minute,Value (Times are PST for temperature in C)
2018,08,23,00,00,16.60
2018,08,23,00,01,16.60
2018,08,23,00,02,16.60
2018,08,23,00,03,16.60
2018,08,23,00,04,16.60
2018,08,23,00,05,16.60
2018,08,23,00,06,16.50
2018,08,23,00,07,16.50
2018,08,23,00,08,16.50
2018,08,23,00,09,16.50
2018,08,23,00,10,16.40
2018,08,23,00,11,16.40
2018,08,23,00,12,16.40
2018,08,23,00,13,16.40
2018,08,23,00,14,16.40
2018,08,23,00,15,16.40
2018,08,23,00,16,16.30
2018,08,23,00,17,16.30
2018,08,23,00,18,16.30
2018,08,23,00,19,16.30
2018,08,23,00,20,16.30
2018,08,23,00,21,16.30
2018,08,23,00,22,16.30
2018,08,23,00,23,16.30
2018,08,23,00,24,16.30
2018,08,23,00,25,16.30
2018,08,23,00,26,16.30
2018,08,23,00,27,16.20
2018,08,23,00,28,16.20
2018,08,23,00,29,16.20
2018,08,23,00,30,16.20
2018,08,23,00,31,16.20
2018,08,23,00,32,16.20
2018,08,23,00,33,16.20
2018,08,23,00,34,16.20
2018,08,23,00,35,16.10
2018,08,23,00,36,16.10
2018,08,23,00,37,16.10
2018,08,23,00,38,16.10
2018,08,23,00,39,16.10
2018,08,23,00,40,16.10
2018,08,23,00,41,16.10
2018,08,23,00,42,16.10
2018,08,23,00,43,16.00
2018,08,23,00,44,16.00
2018,08,23,00,45,16.00
2018,08,23,00,46,16.00
2018,08,23,00,47,16.00
2018,08,23,00,48,16.00
2018,08,23,00,49,15.90
2018,08,23,00,50,15.90
2018,08,23,00,51,15.90
2018,08,23,00,52,15.90
2018,08,23,00,53,15.90
2018,08,23,00,54,15.80
2018,08,23,00,55,15.80
2018,08,23,00,56,15.80
2018,08,23,00,57,15.80
2018,08,23,00,58,15.80
2018,08,23,00,59,15.80
2018,08,23,01,00,15.80
2018,08,23,01,01,15.70
2018,08,23,01,02,15.70
2018,08,23,01,03,15.70
2018,08,23,01,04,15.70
2018,08,23,01,05,15.70
2018,08,23,01,06,15.70
2018,08,23,01,07,15.60
2018,08,23,01,08,15.60
2018,08,23,01,09,15.60
2018,08,23,01,10,15.60
2018,08,23,01,11,15.60
2018,08,23,01,12,15.60
2018,08,23,01,13,15.50
2018,08,23,01,14,15.50
2018,08,23,01,15,15.50
2018,08,23,01,16,15.40
2018,08,23,01,17,15.40
2018,08,23,01,18,15.40
2018,08,23,01,19,15.40
2018,08,23,01,20,15.30
2018,08,23,01,21,15.30
2018,08,23,01,22,15.30
2018,08,23,01,23,15.30
2018,08,23,01,24,15.30
2018,08,23,01,25,15.20
2018,08,23,01,26,15.20
2018,08,23,01,27,15.20
2018,08,23,01,28,15.20
2018,08,23,01,29,15.20
2018,08,23,01,30,15.20
2018,08,23,01,31,15.10
2018,08,23,01,32,15.10
2018,08,23,01,33,15.10
2018,08,23,01,34,15.10
2018,08,23,01,35,15.10
2018,08,23,01,36,15.10
2018,08,23,01,37,15.10
2018,08,23,01,38,15.00
2018,08,23,01,39,15.00
2018,08,23,01,40,15.00
2018,08,23,01,41,15.00
2018,08,23,01,42,15.00
2018,08,23,01,43,15.00
2018,08,23,01,44,14.90
2018,08,23,01,45,14.90
2018,08,23,01,46,14.90
2018,08,23,01,47,14.90
2018,08,23,01,48,14.90
2018,08,23,01,49,14.90
2018,08,23,01,50,14.90
2018,08,23,01,51,14.80
2018,08,23,01,52,14.80
2018,08,23,01,53,14.80
2018,08,23,01,54,14.80
2018,08,23,01,55,14.80
2018,08,23,01,56,14.80
2018,08,23,01,57,14.70
2018,08,23,01,58,14.70
2018,08,23,01,59,14.70
2018,08,23,02,00,14.60
2018,08,23,02,01,14.60
2018,08,23,02,02,14.60
2018,08,23,02,03,14.60
2018,08,23,02,04,14.60
2018,08,23,02,05,14.50
2018,08,23,02,06,14.50
2018,08,23,02,07,14.40
2018,08,23,02,08,14.40
2018,08,23,02,09,14.40
2018,08,23,02,10,14.40
2018,08,23,02,11,14.40
2018,08,23,02,12,14.30
2018,08,23,02,13,14.30
2018,08,23,02,14,14.30
2018,08,23,02,15,14.30
2018,08,23,02,16,14.30
2018,08,23,02,17,14.20
2018,08,23,02,18,14.20
2018,08,23,02,19,14.20
2018,08,23,02,20,14.20
2018,08,23,02,21,14.20
2018,08,23,02,22,14.20
2018,08,23,02,23,14.20
2018,08,23,02,24,14.10
2018,08,23,02,25,14.10
2018,08,23,02,26,14.10
2018,08,23,02,27,14.10
2018,08,23,02,28,14.00
2018,08,23,02,29,14.00
2018,08,23,02,30,14.00
2018,08,23,02,31,14.00
2018,08,23,02,32,14.00
2018,08,23,02,33,14.00
2018,08,23,02,34,14.00
2018,08,23,02,35,13.90
2018,08,23,02,36,13.90
2018,08,23,02,37,13.90
2018,08,23,02,38,13.90
2018,08,23,02,39,13.90
2018,08,23,02,40,14.00
2018,08,23,02,41,14.00
2018,08,23,02,42,14.00
2018,08,23,02,43,14.00
2018,08,23,02,44,14.00
2018,08,23,02,45,13.90
2018,08,23,02,46,13.90
2018,08,23,02,47,13.90
2018,08,23,02,48,13.90
2018,08,23,02,49,13.90
2018,08,23,02,50,13.80
2018,08,23,02,51,13.80
2018,08,23,02,52,13.80
2018,08,23,02,53,13.80
2018,08,23,02,54,13.80
2018,08,23,02,55,13.80
2018,08,23,02,56,13.80
2018,08,23,02,57,13.80
2018,08,23,02,58,13.80
2018,08,23,02,59,13.80
2018,08,23,03,00,13.70
2018,08,23,03,01,13.70
2018,08,23,03,02,13.70
2018,08,23,03,03,13.70
2018,08,23,03,04,13.70
2018,08,23,03,05,13.70
2018,08,23,03,06,13.70
2018,08,23,03,07,13.60
2018,08,23,03,08,13.60
2018,08,23,03,09,13.60
2018,08,23,03,10,13.60
2018,08,23,03,11,13.60
2018,08,23,03,12,13.60
2018,08,23,03,13,13.60
2018,08,23,03,14,13.60
2018,08,23,03,15,13.60
2018,08,23,03,16,13.60
2018,08,23,03,17,13.60
2018,08,23,03,18,13.60
2018,08,23,03,19,13.70
2018,08,23,03,20,13.70
2018,08,23,03,21,13.70
2018,08,23,03,22,13.70
2018,08,23,03,23,13.70
2018,08,23,03,24,13.70
2018,08,23,03,25,13.80
2018,08,23,03,26,13.80
2018,08,23,03,27,13.80
2018,08,23,03,28,13.80
2018,08,23,03,29,13.80
2018,08,23,03,30,13.80
2018,08,23,03,31,13.80
2018,08,23,03,32,13.80
2018,08,23,03,33,13.80
2018,08,23,03,34,13.80
2018,08,23,03,35,13.80
2018,08,23,03,36,13.80
2018,08,23,03,37,13.80
2018,08,23,03,38,13.80
2018,08,23,03,39,13.80
2018,08,23,03,40,13.80
2018,08,23,03,41,13.80
2018,08,23,03,42,13.80
2018,08,23,03,43,13.80
2018,08,23,03,44,13.70
2018,08,23,03,45,13.70
2018,08,23,03,46,13.70
2018,08,23,03,47,13.70
2018,08,23,03,48,13.70
2018,08,23,03,49,13.70
2018,08,23,03,50,13.60
2018,08,23,03,51,13.60
2018,08,23,03,52,13.60
2018,08,23,03,53,13.60
2018,08,23,03,54,13.60
2018,08,23,03,55,13.60
2018,08,23,03,56,13.60
2018,08,23,03,57,13.70
2018,08,23,03,58,13.70
2018,08,23,03,59,13.70
2018,08,23,04,00,13.70
2018,08,23,04,01,13.80
2018,08,23,04,02,13.80
2018,08,23,04,03,13.80
2018,08,23,04,04,13.80
2018,08,23,04,05,13.90
2018,08,23,04,06,13.90
2018,08,23,04,07,13.90
2018,08,23,04,08,14.00
2018,08,23,04,09,14.00
2018,08,23,04,10,14.00
2018,08,23,04,11,14.00
2018,08,23,04,12,14.00
2018,08,23,04,13,14.00
2018,08,23,04,14,14.00
2018,08,23,04,15,14.00
2018,08,23,04,16,14.10
2018,08,23,04,17,14.10
2018,08,23,04,18,14.10
2018,08,23,04,19,14.10
2018,08,23,04,20,14.20
2018,08,23,04,21,14.20
2018,08,23,04,22,14.20
2018,08,23,04,23,14.20
2018,08,23,04,24,14.30
2018,08,23,04,25,14.30
2018,08,23,04,26,14.30
2018,08,23,04,27,14.30
2018,08,23,04,28,14.30
2018,08,23,04,29,14.30
2018,08,23,04,30,14.40
2018,08,23,04,31,14.40
2018,08,23,04,32,14.40
2018,08,23,04,33,14.40
2018,08,23,04,34,14.40
2018,08,23,04,35,14.40
2018,08,23,04,36,14.40
2018,08,23,04,37,14.40
2018,08,23,04,38,14.40
2018,08,23,04,39,14.40
2018,08,23,04,40,14.30
2018,08,23,04,41,14.30
2018,08,23,04,42,14.30
2018,08,23,04,43,14.30
2018,08,23,04,44,14.30
2018,08,23,04,45,14.30
2018,08,23,04,46,14.20
2018,08,23,04,47,14.20
2018,08,23,04,48,14.20
2018,08,23,04,49,14.20
2018,08,23,04,50,14.10
2018,08,23,04,51,14.10
2018,08,23,04,52,14.10
2018,08,23,04,53,14.10
2018,08,23,04,54,14.00
2018,08,23,04,55,14.00
2018,08,23,04,56,14.00
2018,08,23,04,57,14.00
2018,08,23,04,58,14.00
2018,08,23,04,59,14.00
2018,08,23,05,00,13.90
2018,08,23,05,01,13.90
2018,08,23,05,02,13.90
2018,08,23,05,03,13.90
2018,08,23,05,04,13.90
2018,08,23,05,05,13.90
2018,08,23,05,06,13.90
2018,08,23,05,07,13.90
2018,08,23,05,08,13.90
2018,08,23,05,09,13.90
2018,08,23,05,10,13.90
2018,08,23,05,11,13.90
2018,08,23,05,12,13.90
2018,08,23,05,13,13.90
2018,08,23,05,14,13.90
2018,08,23,05,15,13.90
2018,08,23,05,16,13.90
2018,08,23,05,17,13.90
2018,08,23,05,18,13.90
2018,08,23,05,19,13.80
2018,08,23,05,20,13.80
2018,08,23,05,21,13.80
2018,08,23,05,22,13.80
2018,08,23,05,23,13.80
2018,08,23,05,24,13.80
2018,08,23,05,25,13.80
2018,08,23,05,26,13.80
2018,08,23,05,27,13.80
2018,08,23,05,28,13.80
2018,08,23,05,29,13.90
2018,08,23,05,30,13.90
2018,08,23,05,31,13.90
2018,08,23,05,32,13.90
2018,08,23,05,33,13.90
2018,08,23,05,34,13.90
2018,08,23,05,35,13.90
2018,08,23,05,36,14.00
2018,08,23,05,37,14.00
2018,08,23,05,38,14.00
2018,08,23,05,39,14.00
2018,08,23,05,40,14.00
2018,08,23,05,41,14.00
2018,08,23,05,42,14.00
2018,08,23,05,43,14.00
2018,08,23,05,44,14.00
2018,08,23,05,45,14.10
2018,08,23,05,46,14.10
2018,08,23,05,47,14.10
2018,08,23,05,48,14.10
2018,08,23,05,49,14.10
2018,08,23,05,50,14.10
2018,08,23,05,51,14.10
2018,08,23,05,52,14.10
2018,08,23,05,53,14.20
2018,08,23,05,54,14.20
2018,08,23,05,55,14.20
2018,08,23,05,56,14.20
2018,08,23,05,57,14.20
2018,08,23,05,58,14.20
2018,08,23,05,59,14.20
2018,08,23,06,00,14.20
2018,08,23,06,01,14.20
2018,08,23,06,02,14.30
2018,08,23,06,03,14.20
2018,08,23,06,04,14.20
2018,08,23,06,05,14.20
2018,08,23,06,06,14.20
2018,08,23,06,07,14.20
2018,08,23,06,08,14.20
2018,08,23,06,09,14.20
2018,08,23,06,10,14.20
2018,08,23,06,11,14.20
2018,08,23,06,12,14.20
2018,08,23,06,13,14.20
2018,08,23,06,14,14.20
2018,08,23,06,15,14.20
2018,08,23,06,16,14.20
2018,08,23,06,17,14.20
2018,08,23,06,18,14.10
2018,08,23,06,19,14.10
2018,08,23,06,20,14.10
2018,08,23,06,21,14.10
2018,08,23,06,22,14.10
2018,08,23,06,23,14.10
2018,08,23,06,24,14.10
2018,08,23,06,25,14.00
2018,08,23,06,26,14.00
2018,08,23,06,27,14.00
2018,08,23,06,28,13.90
2018,08,23,06,29,13.90
2018,08,23,06,30,13.90
2018,08,23,06,31,13.90
2018,08,23,06,32,13.90
2018,08,23,06,33,13.80
2018,08,23,06,34,13.80
2018,08,23,06,35,13.80
2018,08,23,06,36,13.80
2018,08,23,06,37,13.80
2018,08,23,06,38,13.80
2018,08,23,06,39,13.70
2018,08,23,06,40,13.70
2018,08,23,06,41,13.70
2018,08,23,06,42,13.70
2018,08,23,06,43,13.70
2018,08,23,06,44,13.70
2018,08,23,06,45,13.70
2018,08,23,06,46,13.70
2018,08,23,06,47,13.60
2018,08,23,06,48,13.60
2018,08,23,06,49,13.60
2018,08,23,06,50,13.60
2018,08,23,06,51,13.60
2018,08,23,06,52,13.60
2018,08,23,06,53,13.60
2018,08,23,06,54,13.60
2018,08,23,06,55,13.60
2018,08,23,06,56,13.60
2018,08,23,06,57,13.60
2018,08,23,06,58,13.60
2018,08,23,06,59,13.70
2018,08,23,07,00,13.70
2018,08,23,07,01,13.70
2018,08,23,07,02,13.80
2018,08,23,07,03,13.80
2018,08,23,07,04,13.90
2018,08,23,07,05,13.90
2018,08,23,07,06,13.90
2018,08,23,07,07,14.00
2018,08,23,07,08,14.00
2018,08,23,07,09,14.10
2018,08,23,07,10,14.10
2018,08,23,07,11,14.10
2018,08,23,07,12,14.20
2018,08,23,07,13,14.30
2018,08,23,07,14,14.40
2018,08,23,07,15,14.40
2018,08,23,07,16,14.50
2018,08,23,07,17,14.60
2018,08,23,07,18,14.70
2018,08,23,07,19,14.70
2018,08,23,07,20,14.80
2018,08,23,07,21,14.80
2018,08,23,07,22,14.90
2018,08,23,07,23,14.90
2018,08,23,07,24,15.00
2018,08,23,07,25,15.00
2018,08,23,07,26,15.10
2018,08,23,07,27,15.10
2018,08,23,07,28,15.10
2018,08,23,07,29,15.10
2018,08,23,07,30,15.20
2018,08,23,07,31,15.20
2018,08,23,07,32,15.20
2018,08,23,07,33,15.20
2018,08,23,07,34,15.30
2018,08,23,07,35,15.30
2018,08,23,07,36,15.30
2018,08,23,07,37,15.30
2018,08,23,07,38,15.30
2018,08,23,07,39,15.40
2018,08,23,07,40,15.40
2018,08,23,07,41,15.40
2018,08,23,07,42,15.40
2018,08,23,07,43,15.40
2018,08,23,07,44,15.50
2018,08,23,07,45,15.50
2018,08,23,07,46,15.50
2018,08,23,07,47,15.50
2018,08,23,07,48,15.60
2018,08,23,07,49,15.60
2018,08,23,07,50,15.60
2018,08,23,07,51,15.60
2018,08,23,07,52,15.60
2018,08,23,07,53,15.60
2018,08,23,07,54,15.60
2018,08,23,07,55,15.60
2018,08,23,07,56,15.60
2018,08,23,07,57,15.60
2018,08,23,07,58,15.60
2018,08,23,07,59,15.60
2018,08,23,08,00,15.60
2018,08,23,08,01,15.60
2018,08,23,08,02,15.60
2018,08,23,08,03,15.60
2018,08,23,08,04,15.60
2018,08,23,08,05,15.60
2018,08,23,08,06,15.60
2018,08,23,08,07,15.60
2018,08,23,08,08,15.60
2018,08,23,08,09,15.60
2018,08,23,08,10,15.60
2018,08,23,08,11,15.60
2018,08,23,08,12,15.60
2018,08,23,08,13,15.60
2018,08,23,08,14,15.60
2018,08,23,08,15,15.60
2018,08,23,08,16,15.60
2018,08,23,08,17,15.60
2018,08,23,08,18,15.60
2018,08,23,08,19,15.60
2018,08,23,08,20,15.60
2018,08,23,08,21,15.70
2018,08,23,08,22,15.70
2018,08,23,08,23,15.70
2018,08,23,08,24,15.70
2018,08,23,08,25,15.70
2018,08,23,08,26,15.60
2018,08,23,08,27,15.60
2018,08,23,08,28,15.60
2018,08,23,08,29,15.60
2018,08,23,08,30,15.60
2018,08,23,08,31,15.60
2018,08,23,08,32,15.60
2018,08,23,08,33,15.60
2018,08,23,08,34,15.60
2018,08,23,08,35,15.60
2018,08,23,08,36,15.60
2018,08,23,08,37,15.60
2018,08,23,08,38,15.60
2018,08,23,08,39,15.60
2018,08,23,08,40,15.60
2018,08,23,08,41,15.60
2018,08,23,08,42,15.60
2018,08,23,08,43,15.60
2018,08,23,08,44,15.60
2018,08,23,08,45,15.60
2018,08,23,08,46,15.60
2018,08,23,08,47,15.60
2018,08,23,08,48,15.60
2018,08,23,08,49,15.60
2018,08,23,08,50,15.60
2018,08,23,08,51,15.60
2018,08,23,08,52,15.60
2018,08,23,08,53,15.60
2018,08,23,08,54,15.60
2018,08,23,08,55,15.60
2018,08,23,08,56,15.60
2018,08,23,08,57,15.60
2018,08,23,08,58,15.60
2018,08,23,08,59,15.60
2018,08,23,09,00,15.60
2018,08,23,09,01,15.70
2018,08,23,09,02,15.70
2018,08,23,09,03,15.70
2018,08,23,09,04,15.70
2018,08,23,09,05,15.70
2018,08,23,09,06,15.70
2018,08,23,09,07,15.80
2018,08,23,09,08,15.80
2018,08,23,09,09,15.80
2018,08,23,09,10,15.80
2018,08,23,09,11,15.80
2018,08,23,09,12,15.80
2018,08,23,09,13,15.80
2018,08,23,09,14,15.80
2018,08,23,09,15,15.80
2018,08,23,09,16,15.90
2018,08,23,09,17,15.90
2018,08,23,09,18,15.90
2018,08,23,09,19,15.90
2018,08,23,09,20,15.90
2018,08,23,09,21,15.90
2018,08,23,09,22,15.90
2018,08,23,09,23,15.90
2018,08,23,09,24,15.90
2018,08,23,09,25,15.90
2018,08,23,09,26,15.90
2018,08,23,09,27,15.90
2018,08,23,09,28,15.90
2018,08,23,09,29,15.90
2018,08,23,09,30,15.90
2018,08,23,09,31,15.90
2018,08,23,09,32,15.80
2018,08,23,09,33,15.80
2018,08,23,09,34,15.80
2018,08,23,09,35,15.80
2018,08,23,09,36,15.80
2018,08,23,09,37,15.80
2018,08,23,09,38,15.70
2018,08,23,09,39,15.70
2018,08,23,09,40,15.70
2018,08,23,09,41,15.70
2018,08,23,09,42,15.70
2018,08,23,09,43,15.70
2018,08,23,09,44,15.70
2018,08,23,09,45,15.70
2018,08,23,09,46,15.80
2018,08,23,09,47,15.80
2018,08,23,09,48,15.80
2018,08,23,09,49,15.80
2018,08,23,09,50,15.80
2018,08,23,09,51,15.80
2018,08,23,09,52,15.80
2018,08,23,09,53,15.80
2018,08,23,09,54,15.80
2018,08,23,09,55,15.90
2018,08,23,09,56,15.90
2018,08,23,09,57,15.90
2018,08,23,09,58,15.90
2018,08,23,09,59,15.90
2018,08,23,10,00,15.90
2018,08,23,10,01,15.90
2018,08,23,10,02,15.90
2018,08,23,10,03,16.00
2018,08,23,10,04,16.00
2018,08,23,10,05,16.00
2018,08,23,10,06,16.00
2018,08,23,10,07,16.00
2018,08,23,10,08,16.00
2018,08,23,10,09,16.10
2018,08,23,10,10,16.10
2018,08,23,10,11,16.10
2018,08,23,10,12,16.10
2018,08,23,10,13,16.20
2018,08,23,10,14,16.20
2018,08,23,10,15,16.20
2018,08,23,10,16,16.20
2018,08,23,10,17,16.20
2018,08,23,10,18,16.20
2018,08,23,10,19,16.10
2018,08,23,10,20,16.10
2018,08,23,10,21,16.20
2018,08,23,10,22,16.20
2018,08,23,10,23,16.20
2018,08,23,10,24,16.20
2018,08,23,10,25,16.30
2018,08,23,10,26,16.30
2018,08,23,10,27,16.30
2018,08,23,10,28,16.30
2018,08,23,10,29,16.30
2018,08,23,10,30,16.40
2018,08,23,10,31,16.40
2018,08,23,10,32,16.40
2018,08,23,10,33,16.40
2018,08,23,10,34,16.50
2018,08,23,10,35,16.50
2018,08,23,10,36,16.60
2018,08,23,10,37,16.60
2018,08,23,10,38,16.70
2018,08,23,10,39,16.80
2018,08,23,10,40,16.80
2018,08,23,10,41,16.80
2018,08,23,10,42,16.80
2018,08,23,10,43,16.90
2018,08,23,10,44,16.90
2018,08,23,10,45,17.00
2018,08,23,10,46,17.00
2018,08,23,10,47,17.00
2018,08,23,10,48,17.10
2018,08,23,10,49,17.10
2018,08,23,10,50,17.10
2018,08,23,10,51,17.20
2018,08,23,10,52,17.20
2018,08,23,10,53,17.20
2018,08,23,10,54,17.20
2018,08,23,10,55,17.30
2018,08,23,10,56,17.30
2018,08,23,10,57,17.40
2018,08,23,10,58,17.40
2018,08,23,10,59,17.40
2018,08,23,11,00,17.40
2018,08,23,11,01,17.40
2018,08,23,11,02,17.40
2018,08,23,11,03,17.50
2018,08,23,11,04,17.50
2018,08,23,11,05,17.50
2018,08,23,11,06,17.50
2018,08,23,11,07,17.60
2018,08,23,11,08,17.60
2018,08,23,11,09,17.60
2018,08,23,11,10,17.60
2018,08,23,11,11,17.60
2018,08,23,11,12,17.50
2018,08,23,11,13,17.50
2018,08,23,11,14,17.50
2018,08,23,11,15,17.50
2018,08,23,11,16,17.50
2018,08,23,11,17,17.50
2018,08,23,11,18,17.60
2018,08,23,11,19,17.60
2018,08,23,11,20,17.60
2018,08,23,11,21,17.60
2018,08,23,11,22,17.60
2018,08,23,11,23,17.60
2018,08,23,11,24,17.60
2018,08,23,11,25,17.60
2018,08,23,11,26,17.60
2018,08,23,11,27,17.60
2018,08,23,11,28,17.60
2018,08,23,11,29,17.60
2018,08,23,11,30,17.60
2018,08,23,11,31,17.50
2018,08,23,11,32,17.50
2018,08,23,11,33,17.40
2018,08,23,11,34,17.40
2018,08,23,11,35,17.40
2018,08,23,11,36,17.30
2018,08,23,11,37,17.30
2018,08,23,11,38,17.40
2018,08,23,11,39,17.30
2018,08,23,11,40,17.40
2018,08,23,11,41,17.40
2018,08,23,11,42,17.40
2018,08,23,11,43,17.40
2018,08,23,11,44,17.50
2018,08,23,11,45,17.50
2018,08,23,11,46,17.60
2018,08,23,11,47,17.60
2018,08,23,11,48,17.60
2018,08,23,11,49,17.60
2018,08,23,11,50,17.60
2018,08,23,11,51,17.50
2018,08,23,11,52,17.50
2018,08,23,11,53,17.50
2018,08,23,11,54,17.50
2018,08,23,11,55,17.40
2018,08,23,11,56,17.40
2018,08,23,11,57,17.40
2018,08,23,11,58,17.40
2018,08,23,11,59,17.40
2018,08,23,12,00,17.50
2018,08,23,12,01,17.50
2018,08,23,12,02,17.50
2018,08,23,12,03,17.50
2018,08,23,12,04,17.40
2018,08,23,12,05,17.40
2018,08,23,12,06,17.40
2018,08,23,12,07,17.40
2018,08,23,12,08,17.40
2018,08,23,12,09,17.40
2018,08,23,12,10,17.40
2018,08,23,12,11,17.40
2018,08,23,12,12,17.40
2018,08,23,12,13,17.40
2018,08,23,12,14,17.50
2018,08,23,12,15,17.50
2018,08,23,12,16,17.60
2018,08,23,12,17,17.60
2018,08,23,12,18,17.60
2018,08,23,12,19,17.60
2018,08,23,12,20,17.60
2018,08,23,12,21,17.60
2018,08,23,12,22,17.70
2018,08,23,12,23,17.70
2018,08,23,12,24,17.70
2018,08,23,12,25,17.70
2018,08,23,12,26,17.70
2018,08,23,12,27,17.70
2018,08,23,12,28,17.70
2018,08,23,12,29,17.80
2018,08,23,12,30,17.80
2018,08,23,12,31,17.80
2018,08,23,12,32,17.80
2018,08,23,12,33,17.90
2018,08,23,12,34,17.90
2018,08,23,12,35,18.00
2018,08,23,12,36,18.00
2018,08,23,12,37,18.10
2018,08,23,12,38,18.20
2018,08,23,12,39,18.20
2018,08,23,12,40,18.20
2018,08,23,12,41,18.20
2018,08,23,12,42,18.20
2018,08,23,12,43,18.20
2018,08,23,12,44,18.20
2018,08,23,12,45,18.20
2018,08,23,12,46,18.30
2018,08,23,12,47,18.30
2018,08,23,12,48,18.30
2018,08,23,12,49,18.30
2018,08,23,12,50,18.30
2018,08,23,12,51,18.40
2018,08,23,12,52,18.40
2018,08,23,12,53,18.50
2018,08,23,12,54,18.60
2018,08,23,12,55,18.60
2018,08,23,12,56,18.70
2018,08,23,12,57,18.70
2018,08,23,12,58,18.80
2018,08,23,12,59,18.80
2018,08,23,13,00,18.80
2018,08,23,13,01,18.80
2018,08,23,13,02,18.70
2018,08,23,13,03,18.70
2018,08,23,13,04,18.70
2018,08,23,13,05,18.80
2018,08,23,13,06,18.80
2018,08,23,13,07,18.80
2018,08,23,13,08,18.90
2018,08,23,13,09,18.90
2018,08,23,13,10,19.00
2018,08,23,13,11,19.00
2018,08,23,13,12,18.90
2018,08,23,13,13,18.90
2018,08,23,13,14,18.90
2018,08,23,13,15,18.90
2018,08,23,13,16,18.90
2018,08,23,13,17,18.90
2018,08,23,13,18,19.00
2018,08,23,13,19,19.00
2018,08,23,13,20,19.00
2018,08,23,13,21,19.10
2018,08,23,13,22,19.10
2018,08,23,13,23,19.10
2018,08,23,13,24,19.20
2018,08,23,13,25,19.20
2018,08,23,13,26,19.30
2018,08,23,13,27,19.30
2018,08,23,13,28,19.40
2018,08,23,13,29,19.50
2018,08,23,13,30,19.50
2018,08,23,13,31,19.60
2018,08,23,13,32,19.60
2018,08,23,13,33,19.70
2018,08,23,13,34,19.70
2018,08,23,13,35,19.70
2018,08,23,13,36,19.70
2018,08,23,13,37,19.70
2018,08,23,13,38,19.70
2018,08,23,13,39,19.80
2018,08,23,13,40,19.80
2018,08,23,13,41,19.80
2018,08,23,13,42,19.80
2018,08,23,13,43,19.80
2018,08,23,13,44,19.90
2018,08,23,13,45,19.90
2018,08,23,13,46,19.90
2018,08,23,13,47,20.00
2018,08,23,13,48,20.00
2018,08,23,13,49,20.10
2018,08,23,13,50,20.10
2018,08,23,13,51,20.20
2018,08,23,13,52,20.20
2018,08,23,13,53,20.20
2018,08,23,13,54,20.20
2018,08,23,13,55,20.20
2018,08,23,13,56,20.20
2018,08,23,13,57,20.20
2018,08,23,13,58,20.20
2018,08,23,13,59,20.10
2018,08,23,14,00,20.10
2018,08,23,14,01,20.10
2018,08,23,14,02,20.10
2018,08,23,14,03,20.10
2018,08,23,14,04,20.10
2018,08,23,14,05,20.20
2018,08,23,14,06,20.20
2018,08,23,14,07,20.20
2018,08,23,14,08,20.20
2018,08,23,14,09,20.20
2018,08,23,14,10,20.20
2018,08,23,14,11,20.20
2018,08,23,14,12,20.20
2018,08,23,14,13,20.10
2018,08,23,14,14,20.20
2018,08,23,14,15,20.20
2018,08,23,14,16,20.20
2018,08,23,14,17,20.30
2018,08,23,14,18,20.30
2018,08,23,14,19,20.40
2018,08,23,14,20,20.40
2018,08,23,14,21,20.40
2018,08,23,14,22,20.40
2018,08,23,14,23,20.40
2018,08,23,14,24,20.40
2018,08,23,14,25,20.40
2018,08,23,14,26,20.40
2018,08,23,14,27,20.40
2018,08,23,14,28,20.40
2018,08,23,14,29,20.50
2018,08,23,14,30,20.50
2018,08,23,14,31,20.50
2018,08,23,14,32,20.50
2018,08,23,14,33,20.50
2018,08,23,14,34,20.50
2018,08,23,14,35,20.50
2018,08,23,14,36,20.40
2018,08,23,14,37,20.40
2018,08,23,14,38,20.40
2018,08,23,14,39,20.40
2018,08,23,14,40,20.40
2018,08,23,14,41,20.40
2018,08,23,14,42,20.50
2018,08,23,14,43,20.50
2018,08,23,14,44,20.60
2018,08,23,14,45,20.60
2018,08,23,14,46,20.60
2018,08,23,14,47,20.60
2018,08,23,14,48,20.60
2018,08,23,14,49,20.50
2018,08,23,14,50,20.50
2018,08,23,14,51,20.50
2018,08,23,14,52,20.50
2018,08,23,14,53,20.50
2018,08,23,14,54,20.50
2018,08,23,14,55,20.50
2018,08,23,14,56,20.50
2018,08,23,14,57,20.50
2018,08,23,14,58,20.50
2018,08,23,14,59,20.60
2018,08,23,15,00,20.60
2018,08,23,15,01,20.60
2018,08,23,15,02,20.60
2018,08,23,15,03,20.60
2018,08,23,15,04,20.60
2018,08,23,15,05,20.70
2018,08,23,15,06,20.70
2018,08,23,15,07,20.80
2018,08,23,15,08,20.80
2018,08,23,15,09,20.80
2018,08,23,15,10,20.70
2018,08,23,15,11,20.70
2018,08,23,15,12,20.70
2018,08,23,15,13,20.70
2018,08,23,15,14,20.80
2018,08,23,15,15,20.80
2018,08,23,15,16,20.90
2018,08,23,15,17,20.90
2018,08,23,15,18,20.90
2018,08,23,15,19,21.00
2018,08,23,15,20,21.10
2018,08,23,15,21,21.10
2018,08,23,15,22,21.10
2018,08,23,15,23,21.20
2018,08,23,15,24,21.30
2018,08,23,15,25,21.30
2018,08,23,15,26,21.30
2018,08,23,15,27,21.30
2018,08,23,15,28,21.20
2018,08,23,15,29,21.20
2018,08,23,15,30,21.10
2018,08,23,15,31,21.10
2018,08,23,15,32,21.10
2018,08,23,15,33,21.00
2018,08,23,15,34,21.00
2018,08,23,15,35,21.10
2018,08,23,15,36,21.20
2018,08,23,15,37,21.30
2018,08,23,15,38,21.30
2018,08,23,15,39,21.40
2018,08,23,15,40,21.40
2018,08,23,15,41,21.50
2018,08,23,15,42,21.50
2018,08,23,15,43,21.50
2018,08,23,15,44,21.60
2018,08,23,15,45,21.60
2018,08,23,15,46,21.70
2018,08,23,15,47,21.70
2018,08,23,15,48,21.70
2018,08,23,15,49,21.70
2018,08,23,15,50,21.70
2018,08,23,15,51,21.70
2018,08,23,15,52,21.70
2018,08,23,15,53,21.70
2018,08,23,15,54,21.60
2018,08,23,15,55,21.50
2018,08,23,15,56,21.40
2018,08,23,15,57,21.40
2018,08,23,15,58,21.40
2018,08,23,15,59,21.40
2018,08,23,16,00,21.30
2018,08,23,16,01,21.20
2018,08,23,16,02,21.10
2018,08,23,16,03,21.00
2018,08,23,16,04,20.90
2018,08,23,16,05,20.80
2018,08,23,16,06,20.80
2018,08,23,16,07,20.80
2018,08,23,16,08,20.80
2018,08,23,16,09,20.70
2018,08,23,16,10,20.80
2018,08,23,16,11,20.80
2018,08,23,16,12,20.70
2018,08,23,16,13,20.80
2018,08,23,16,14,20.80
2018,08,23,16,15,20.70
2018,08,23,16,16,20.80
2018,08,23,16,17,20.80
2018,08,23,16,18,20.80
2018,08,23,16,19,20.80
2018,08,23,16,20,20.80
2018,08,23,16,21,20.80
2018,08,23,16,22,20.80
2018,08,23,16,23,20.90
2018,08,23,16,24,21.00
2018,08,23,16,25,21.00
2018,08,23,16,26,20.90
2018,08,23,16,27,20.90
2018,08,23,16,28,20.90
2018,08,23,16,29,20.80
2018,08,23,16,30,20.80
2018,08,23,16,31,20.80
2018,08,23,16,32,20.70
2018,08,23,16,33,20.70
2018,08,23,16,34,20.60
2018,08,23,16,35,20.60
2018,08,23,16,36,20.60
2018,08,23,16,37,20.60
2018,08,23,16,38,20.70
2018,08,23,16,39,20.70
2018,08,23,16,40,20.70
2018,08,23,16,41,20.70
2018,08,23,16,42,20.70
2018,08,23,16,43,20.80
2018,08,23,16,44,20.80
2018,08,23,16,45,20.80
2018,08,23,16,46,20.90
2018,08,23,16,47,20.90
2018,08,23,16,48,21.00
2018,08,23,16,49,21.10
2018,08,23,16,50,21.10
2018,08,23,16,51,21.20
2018,08,23,16,52,21.20
2018,08,23,16,53,21.30
2018,08,23,16,54,21.30
2018,08,23,16,55,21.20
2018,08,23,16,56,21.10
2018,08,23,16,57,20.90
2018,08,23,16,58,20.80
2018,08,23,16,59,20.70
2018,08,23,17,00,20.70
2018,08,23,17,01,20.60
2018,08,23,17,02,20.60
2018,08,23,17,03,20.60
2018,08,23,17,04,20.60
2018,08,23,17,05,20.50
2018,08,23,17,06,20.50
2018,08,23,17,07,20.50
2018,08,23,17,08,20.40
2018,08,23,17,09,20.40
2018,08,23,17,10,20.40
2018,08,23,17,11,20.40
2018,08,23,17,12,20.40
2018,08,23,17,13,20.40
2018,08,23,17,14,20.40
2018,08,23,17,15,20.40
2018,08,23,17,16,20.40
2018,08,23,17,17,20.40
2018,08,23,17,18,20.40
2018,08,23,17,19,20.40